Location: B?dargowo
(53.3916°N, 14.4413°E)
Time: 02:15:19
(UTC+00:00)

Meteor 1-11 - Pass Details

Date: 05 February 2023
Orbit: 839 x 888 km, 81.2° (Epoch: 20 March)

Event Time Altitude Azimuth Distance (km) Brightness Sun altitude
Rises 17:31:16 0° 195° (SSW) 3,483 7.7 -14.9°
Reaches altitude 10° 17:33:42 10° 197° (SSW) 2,546 7.0 -15.2°
Maximum altitude 17:39:31 79° 284° (WNW) 906 4.4 -16.1°
Drops below altitude 10° 17:45:20 10° 12° (NNE) 2,541 6.5 -17.0°
Sets 17:47:47 0° 14° (NNE) 3,477 7.2 -17.3°
